H1 CPF 2 NER 2021 1 8 9 008 01 glonass129 H2 1106402 9129 37868 2021 1 8 0 0 0 2021 1 11 23 45 0 900 1 1 0 0 0 1 H9 10 0 59222 0.00000 0 -18330330.431 -1723766.855 17662063.258 10 0 59222 900.00000 0 -20133710.039 -2677841.166 15431211.430 10 0 59222 1800.00000 0 -21740133.647 -3367245.129 12900626.329 10 0 59222 2700.00000 0 -23091464.772 -3811203.807 10119298.271 10 0 59222 3600.00000 0 -24136646.221 -4039826.637 7141161.936 10 0 59222 4500.00000 0 -24833824.059 -4092590.720 4024055.509 10 0 59222 5400.00000 0 -25152108.467 -4016424.640 828597.126 10 0 59222 6300.00000 0 -25072895.367 -3863473.749 -2382999.509 10 0 59222 7200.00000 0 -24590691.049 -3688642.052 -5548146.541 10 0 59222 8100.00000 0 -23713403.019 -3547016.069 -8605115.472 10 0 59222 9000.00000 0 -22462083.051 -3491281.550 -11494257.211 10 0 59222 9900.00000 0 -20870131.979 -3569244.613 -14159182.976 10 0 59222 10800.00000 0 -18981999.081 -3821564.687 -16547881.297 10 0 59222 11700.00000 0 -16851430.637 -4279797.585 -18613747.626 10 0 59222 12600.00000 0 -14539341.830 -4964833.642 -20316505.060 10 0 59222 13500.00000 0 -12111402.198 -5885798.690 -21622997.254 10 0 59222 14400.00000 0 -9635436.961 -7039465.643 -22507837.531 10 0 59222 15300.00000 0 -7178754.203 -8410202.220 -22953901.416 10 0 59222 16200.00000 0 -4805510.576 -9970457.331 -22952653.334 10 0 59222 17100.00000 0 -2574226.069 -11681765.495 -22504301.820 10 0 59222 18000.00000 0 -535551.599 -13496226.556 -21617781.106 10 0 59222 18900.00000 0 1269618.105 -15358397.820 -20310560.619 10 0 59222 19800.00000 0 2811608.971 -17207518.499 -18608287.273 10 0 59222 20700.00000 0 4072950.161 -18979972.380 -16544268.759 10 0 59222 21600.00000 0 5048836.264 -20611884.970 -14158809.079 10 0 59222 22500.00000 0 5747052.593 -22041746.042 -11498410.288 10 0 59222 23400.00000 0 6187369.723 -23212947.717 -8614856.974 10 0 59222 24300.00000 0 6400435.606 -24076132.209 -5564202.038 10 0 59222 25200.00000 0 6426214.506 -24591251.662 -2405674.025 10 0 59222 26100.00000 0 6312040.607 -24729254.846 799472.370 10 0 59222 27000.00000 0 6110369.914 -24473331.342 3989140.231 10 0 59222 27900.00000 0 5876326.201 -23819662.469 7101586.086 10 0 59222 28800.00000 0 5665144.803 -22777648.745 10076604.559 10 0 59222 29700.00000 0 5529621.823 -21369605.439 12856679.940 10 0 59222 30600.00000 0 5517675.626 -19629939.494 15388083.494 10 0 59222 31500.00000 0 5670122.434 -17603842.424 17621896.564 10 0 59222 32400.00000 0 6018758.709 -15345553.235 19514941.189 10 0 59222 33300.00000 0 6584830.173 -12916262.757 21030601.761 10 0 59222 34200.00000 0 7377951.388 -10381745.173 22139523.198 10 0 59222 35100.00000 0 8395521.342 -7809813.306 22820173.319 10 0 59222 36000.00000 0 9622660.328 -5267701.243 23059259.350 10 0 59222 36900.00000 0 11032672.124 -2819480.898 22851990.789 10 0 59222 37800.00000 0 12588014.123 -523617.711 22202183.363 10 0 59222 38700.00000 0 14241737.263 1569234.708 21122201.264 10 0 59222 39600.00000 0 15939338.090 3418110.515 19632737.517 10 0 59222 40500.00000 0 17620948.095 4993200.842 17762435.065 10 0 59222 41400.00000 0 19223770.980 6276855.276 15547353.902 10 0 59222 42300.00000 0 20684667.511 7264073.414 13030292.624 10 0 59222 43200.00000 0 21942780.648 7962465.392 10259975.604 10 0 59222 44100.00000 0 22942091.054 8391682.202 7290119.905 10 0 59222 45000.00000 0 23633794.979 8582338.965 4178398.972 10 0 59222 45900.00000 0 23978403.248 8574475.969 985322.614 10 0 59222 46800.00000 0 23947471.082 8415622.257 -2226944.945 10 0 59222 47700.00000 0 23524883.652 8158543.923 -5395805.236 10 0 59222 48600.00000 0 22707640.871 7858773.312 -8459459.039 10 0 59222 49500.00000 0 21506106.177 7572025.192 -11358127.672 10 0 59222 50400.00000 0 19943707.056 7351611.195 -14035236.394 10 0 59222 51300.00000 0 18056098.670 7245964.187 -16438535.085 10 0 59222 52200.00000 0 15889825.091 7296379.645 -18521132.678 10 0 59222 53100.00000 0 13500534.437 7535071.675 -20242423.695 10 0 59222 54000.00000 0 10950823.243 7983627.712 -21568887.847 10 0 59222 54900.00000 0 8307801.204 8651928.509 -22474746.528 10 0 59222 55800.00000 0 5640479.269 9537579.838 -22942463.269 10 0 59222 56700.00000 0 3017091.136 10625880.162 -22963078.710 10 0 59222 57600.00000 0 502460.606 11890325.470 -22536374.242 10 0 59222 58500.00000 0 -1844475.075 13293629.401 -21670862.053 10 0 59222 59400.00000 0 -3972883.009 14789214.914 -20383602.908 10 0 59222 60300.00000 0 -5841902.133 16323113.842 -18699856.397 10 0 59222 61200.00000 0 -7422084.066 17836193.467 -16652571.715 10 0 59222 62100.00000 0 -8696349.413 19266615.823 -14281730.066 10 0 59222 63000.00000 0 -9660422.273 20552425.832 -11633552.526 10 0 59222 63900.00000 0 -10322727.626 21634159.309 -8759589.790 10 0 59222 64800.00000 0 -10703758.958 22457361.459 -5715712.264 10 0 59222 65700.00000 0 -10834945.523 22974910.574 -2561020.677 10 0 59222 66600.00000 0 -10757069.327 23149050.164 643301.189 10 0 59222 67500.00000 0 -10518300.461 22953045.258 3835169.329 10 0 59222 68400.00000 0 -10171934.902 22372394.550 6952795.152 10 0 59222 69300.00000 0 -9773930.810 21405548.660 9935871.221 10 0 59222 70200.00000 0 -9380347.205 20064105.402 12726724.916 10 0 59222 71100.00000 0 -9044792.505 18372474.448 15271418.862 10 0 59222 72000.00000 0 -8815989.473 16367025.607 17520778.052 10 0 59222 72900.00000 0 -8735557.985 14094755.881 19431325.331 10 0 59222 73800.00000 0 -8836107.806 11611529.858 20966108.673 10 0 59222 74700.00000 0 -9139720.611 8979965.303 22095405.629 10 0 59222 75600.00000 0 -9656884.587 6267049.857 22797292.525 10 0 59222 76500.00000 0 -10385926.388 3541585.617 23058068.237 10 0 59222 77400.00000 0 -11312965.044 871565.387 22872524.646 10 0 59222 78300.00000 0 -12412391.103 -1678412.822 22244058.399 10 0 59222 79200.00000 0 -13647852.906 -4049587.789 21184621.028 10 0 59222 80100.00000 0 -14973710.907 -6191233.636 19714507.165 10 0 59222 81000.00000 0 -16336901.588 -8062524.662 17861983.287 10 0 59222 81900.00000 0 -17679135.101 -9633989.346 15662762.205 10 0 59222 82800.00000 0 -18939336.405 -10888492.720 13159331.502 10 0 59222 83700.00000 0 -20056228.719 -11821705.668 10400146.987 10 0 59222 84600.00000 0 -20970951.336 -12442040.696 7438705.146 10 0 59222 85500.00000 0 -21629601.391 -12770055.989 4332511.475 10 0 59223 0.00000 0 -21985591.602 -12837352.108 1141964.164 10 0 59223 900.00000 0 -22001722.534 -12685007.396 -2070825.608 10 0 59223 1800.00000 0 -21651880.926 -12361618.111 -5243252.141 10 0 59223 2700.00000 0 -20922288.023 -11921026.751 -8313448.880 10 0 59223 3600.00000 0 -19812244.951 -11419835.715 -11221510.843 10 0 59223 4500.00000 0 -18334340.008 -10914813.141 -13910680.459 10 0 59223 5400.00000 0 -16514108.079 -10460302.650 -16328471.850 10 0 59223 6300.00000 0 -14389155.063 -10105748.720 -18427710.001 10 0 59223 7200.00000 0 -12007783.623 -9893444.370 -20167463.018 10 0 59223 8100.00000 0 -9427177.938 -9856598.194 -21513848.314 10 0 59223 9000.00000 0 -6711223.904 -10017803.764 -22440696.441 10 0 59223 9900.00000 0 -3928056.858 -10387976.872 -22930059.411 10 0 59223 10800.00000 0 -1147440.083 -10965805.746 -22972553.952 10 0 59223 11700.00000 0 1561915.807 -11737737.180 -22567533.655 10 0 59223 12600.00000 0 4134980.287 -12678498.461 -21723087.515 10 0 59223 13500.00000 0 6512867.757 -13752132.093 -20455866.089 10 0 59223 14400.00000 0 8645037.688 -14913498.539 -18790739.772 10 0 59223 15300.00000 0 10491139.543 -16110182.465 -16760297.126 10 0 59223 16200.00000 0 12022427.367 -17284721.104 -14404194.193 10 0 59223 17100.00000 0 13222687.375 -18377060.066 -11768368.522 10 0 59223 18000.00000 0 14088642.378 -19327132.588 -8904134.215 10 0 59223 18900.00000 0 14629819.121 -20077453.487 -5867176.358 10 0 59223 19800.00000 0 14867886.965 -20575618.810 -2716464.969 10 0 59223 20700.00000 0 14835498.339 -20776606.515 486890.002 10 0 59223 21600.00000 0 14574682.007 -20644782.229 3680820.320 10 0 59223 22500.00000 0 14134858.446 -20155526.749 6803495.040 10 0 59223 23400.00000 0 13570561.937 -19296417.916 9794507.236 10 0 59223 24300.00000 0 12938965.690 -18067918.187 12596029.737 10 0 59223 25200.00000 0 12297313.964 -16483539.658 15153918.611 10 0 59223 26100.00000 0 11700368.501 -14569479.871 17418744.271 10 0 59223 27000.00000 0 11197975.569 -12363743.288 19346731.805 10 0 59223 27900.00000 0 10832854.617 -9914784.174 20900593.854 10 0 59223 28800.00000 0 10638700.208 -7279726.027 22050241.311 10 0 59223 29700.00000 0 10638675.947 -4522229.668 22773359.348 10 0 59223 30600.00000 0 10844363.089 -1710096.221 23055838.450 10 0 59223 31500.00000 0 11255207.993 1087297.897 22892052.481 10 0 59223 32400.00000 0 11858492.280 3801630.097 22284978.260 10 0 59223 33300.00000 0 12629828.271 6368218.054 21246153.605 10 0 59223 34200.00000 0 13534160.724 8728457.912 19795473.426 10 0 59223 35100.00000 0 14527234.941 10832014.381 17960826.163 10 0 59223 36000.00000 0 15557471.816 12638672.404 15777575.660 10 0 59223 36900.00000 0 16568173.002 14119773.357 13287896.520 10 0 59223 37800.00000 0 17499965.033 15259175.507 10539973.869 10 0 59223 38700.00000 0 18293380.431 16053697.816 7587081.353 10 0 59223 39600.00000 0 18891467.173 16513027.493 4486554.151 10 0 59223 40500.00000 0 19242315.801 16659094.272 1298676.259 10 0 59223 41400.00000 0 19301396.145 16524937.031 -1914496.395 10 0 59223 42300.00000 0 19033602.935 16153110.173 -5090353.404 10 0 59223 43200.00000 0 18414921.513 15593697.246 -8166963.193 10 0 59223 44100.00000 0 17433640.706 14902016.460 -11084296.609 10 0 59223 45000.00000 0 16091059.201 14136116.344 -13785415.148 10 0 59223 45900.00000 0 14401653.433 13354169.125 -16217598.851 10 0 59223 46800.00000 0 12392698.219 12611873.941 -18333390.185 10 0 59223 47700.00000 0 10103355.000 11959981.596 -20091532.051 10 0 59223 48600.00000 0 7583265.465 11442047.192 -21457780.603 10 0 59223 49500.00000 0 4890709.501 11092506.939 -22405576.418 10 0 59223 50400.00000 0 2090405.096 10935161.190 -22916560.703 10 0 59223 51300.00000 0 -748957.211 10982127.997 -22980926.815 10 0 59223 52200.00000 0 -3557341.728 11233311.048 -22597600.836 10 0 59223 53100.00000 0 -6266046.648 11676403.572 -21774248.594 10 0 59223 54000.00000 0 -8810322.889 12287426.890 -20527110.123 10 0 59223 54900.00000 0 -11131823.920 13031779.400 -18880665.960 10 0 59223 55800.00000 0 -13180785.192 13865750.247 -16867143.020 10 0 59223 56700.00000 0 -14917843.772 14738432.366 -14525870.864 10 0 59223 57600.00000 0 -16315424.177 15593952.951 -11902501.930 10 0 59223 58500.00000 0 -17358634.848 16373926.320 -9048111.932 10 0 59223 59400.00000 0 -18045640.478 17020025.163 -6018198.703 10 0 59223 60300.00000 0 -18387497.406 17476561.548 -2871599.507 10 0 59223 61200.00000 0 -18407461.625 17692969.122 330651.676 10 0 59223 62100.00000 0 -18139800.926 17626082.437 3526504.610 10 0 59223 63000.00000 0 -17628163.054 17242118.204 6654088.304 10 0 59223 63900.00000 0 -16923569.831 16518276.030 9652898.741 10 0 59223 64800.00000 0 -16082122.366 15443892.182 12464956.666 10 0 59223 65700.00000 0 -15162513.893 14021098.611 15035914.093 10 0 59223 66600.00000 0 -14223454.265 12264959.902 17316089.363 10 0 59223 67500.00000 0 -13321113.274 10203082.217 19261412.248 10 0 59223 68400.00000 0 -12506688.839 7874709.794 20834262.356 10 0 59223 69300.00000 0 -11824200.636 5329345.355 22004186.025 10 0 59223 70200.00000 0 -11308600.375 2624949.996 22748479.081 10 0 59223 71100.00000 0 -10984276.879 -174204.985 23052625.083 10 0 59223 72000.00000 0 -10864018.076 -2999947.557 22910580.922 10 0 59223 72900.00000 0 -10948473.410 -5782778.444 22324904.184 10 0 59223 73800.00000 0 -11226139.822 -8454504.356 21306719.058 10 0 59223 74700.00000 0 -11673873.111 -10950823.766 19875520.290 10 0 59223 75600.00000 0 -12257904.824 -13213759.560 18058817.320 10 0 59223 76500.00000 0 -12935323.841 -15193838.460 15891623.568 10 0 59223 77400.00000 0 -13655962.219 -16851926.832 13415798.739 10 0 59223 78300.00000 0 -14364607.537 -18160646.096 10679254.957 10 0 59223 79200.00000 0 -15003449.633 -19105307.927 7735040.407 10 0 59223 80100.00000 0 -15514658.980 -19684328.962 4640317.082 10 0 59223 81000.00000 0 -15842987.551 -19909106.521 1455251.826 10 0 59223 81900.00000 0 -15938281.183 -19803359.534 -1758157.936 10 0 59223 82800.00000 0 -15757795.489 -19401961.664 -4937300.223 10 0 59223 83700.00000 0 -15268215.130 -18749315.625 -8020181.621 10 0 59223 84600.00000 0 -14447288.456 -17897337.569 -10946651.977 10 0 59223 85500.00000 0 -13285005.869 -16903137.525 -13659594.938 10 0 59224 0.00000 0 -11784269.720 -15826495.225 -16106059.328 10 0 59224 900.00000 0 -9961024.944 -14727239.705 -18238307.853 10 0 59224 1800.00000 0 -7843844.673 -13662644.615 -20014760.503 10 0 59224 2700.00000 0 -5472985.258 -12684952.021 -21400814.042 10 0 59224 3600.00000 0 -2898951.788 -11839129.165 -22369520.434 10 0 59224 4500.00000 0 -180633.219 -11160954.830 -22902110.889 10 0 59224 5400.00000 0 2616914.048 -10675515.792 -22988355.627 10 0 59224 6300.00000 0 5424941.108 -10396176.598 -22626752.928 10 0 59224 7200.00000 0 8173636.018 -10324065.240 -21824544.677 10 0 59224 8100.00000 0 10794797.814 -10448094.991 -20597559.189 10 0 59224 9000.00000 0 13224443.580 -10745519.829 -18969885.574 10 0 59224 9900.00000 0 15405240.240 -11182998.112 -16973387.200 10 0 59224 10800.00000 0 17288660.668 -11718117.763 -14647064.919 10 0 59224 11700.00000 0 18836775.634 -12301316.889 -12036283.532 10 0 59224 12600.00000 0 20023608.662 -12878117.315 -9191877.553 10 0 59224 13500.00000 0 20835999.506 -13391575.697 -6169154.491 10 0 59224 14400.00000 0 21273942.678 -13784848.148 -3026815.590 10 0 59224 15300.00000 0 21350389.399 -14003759.918 174184.511 10 0 59224 16200.00000 0 21090523.730 -13999271.977 3371816.948 10 0 59224 17100.00000 0 20530545.382 -13729741.015 6504173.946 10 0 59224 18000.00000 0 19716011.890 -13162878.422 9510657.450 10 0 59224 18900.00000 0 18699810.803 -12277326.591 12333138.866 10 0 59224 19800.00000 0 17539847.383 -11063786.959 14917068.537 10 0 59224 20700.00000 0 16296544.589 -9525652.883 17212514.700 10 0 59224 21600.00000 0 15030259.388 -7679120.776 19175113.354 10 0 59224 22500.00000 0 13798722.389 -5552774.275 20766912.189 10 0 59224 23400.00000 0 12654606.598 -3186657.680 21957093.663 10 0 59224 24300.00000 0 11643325.461 -630875.537 22722564.515 10 0 59224 25200.00000 0 10801150.942 2056225.624 23048401.212 10 0 59224 26100.00000 0 10153729.313 4810220.302 22928143.108 10 0 59224 27000.00000 0 9715056.163 7563024.749 22363927.574 10 0 59224 27900.00000 0 9486953.515 10245477.618 21366463.829 10 0 59224 28800.00000 0 9459071.519 12789975.703 19954844.770 10 0 59224 29700.00000 0 9609415.734 15133057.317 18156198.859 10 0 59224 30600.00000 0 9905379.245 17217827.226 16005186.842 10 0 59224 31500.00000 0 10305237.885 18996122.774 13543351.076 10 0 59224 32400.00000 0 10760047.094 20430330.888 10818328.065 10 0 59224 33300.00000 0 11215861.670 21494779.441 7882937.778 10 0 59224 34200.00000 0 11616185.412 22176643.592 4794166.202 10 0 59224 35100.00000 0 11904547.169 22476327.824 1612060.175 10 0 59224 36000.00000 0 12027093.611 22407306.291 -1601444.176 10 0 59224 36900.00000 0 11935087.606 21995427.059 -4783735.975 10 0 59224 37800.00000 0 11587204.414 21277708.848 -7872762.446 10 0 59224 38700.00000 0 10951526.054 20300680.801 -10808254.631 10 0 59224 39600.00000 0 10007146.858 19118335.736 -13532920.219 10 0 59224 40500.00000 0 8745319.717 17789784.149 -15993578.469 10 0 59224 41400.00000 0 7170092.240 16376709.321 -18142213.394 10 0 59224 42300.00000 0 5298404.122 14940732.480 -19936923.085 10 0 59224 43200.00000 0 3159640.190 13540800.711 -21342745.625 10 0 59224 44100.00000 0 794657.063 12230709.135 -22332344.824 10 0 59224 45000.00000 0 -1745675.963 11056862.728 -22886542.128 10 0 59224 45900.00000 0 -4402360.588 10056372.504 -22994684.614 10 0 59224 46800.00000 0 -7110498.508 9255565.999 -22654842.481 10 0 59224 47700.00000 0 -9801772.034 8668973.956 -21873833.071 10 0 59224 48600.00000 0 -12407072.252 8298834.468 -20667072.044 10 0 59224 49500.00000 0 -14859164.893 8135133.580 -19058255.796 10 0 59224 50400.00000 0 -17095282.663 8156178.503 -17078882.536 10 0 59224 51300.00000 0 -19059536.479 8329677.020 -14767622.543 10 0 59224 52200.00000 0 -20705045.987 8614275.359 -12169550.923 10 0 59224 53100.00000 0 -21995701.810 8961487.707 -9335258.834 10 0 59224 54000.00000 0 -22907487.814 9317934.321 -6319861.264 10 0 59224 54900.00000 0 -23429310.253 9627792.593 -3181921.246 10 0 59224 55800.00000 0 -23563301.401 9835356.938 17688.088 10 0 59224 56700.00000 0 -23324587.262 9887599.232 3216961.405 10 0 59224 57600.00000 0 -22740531.223 9736622.019 6353956.293 10 0 59224 58500.00000 0 -21849487.059 9341901.561 9367982.820 10 0 59224 59400.00000 0 -20699114.832 8672226.976 12200765.213 10 0 59224 60300.00000 0 -19344330.887 7707254.551 14797554.288 10 0 59224 61200.00000 0 -17844977.836 6438612.479 17108170.266 10 0 59224 62100.00000 0 -16263311.489 4870509.868 19087957.332 10 0 59224 63000.00000 0 -14661408.742 3019824.157 20698633.034 10 0 59224 63900.00000 0 -13098603.312 915662.475 21909017.472 10 0 59224 64800.00000 0 -11629054.808 -1401586.288 22695629.510 10 0 59224 65700.00000 0 -10299550.943 -3881671.248 23043139.383 10 0 59224 66600.00000 0 -9147633.244 -6466314.474 22944669.376 10 0 59224 67500.00000 0 -8200123.445 -9091387.603 22401936.738 10 0 59224 68400.00000 0 -7472111.522 -11689342.481 21425235.392 10 0 59224 69300.00000 0 -6966447.696 -14191797.399 20033255.665 10 0 59224 70200.00000 0 -6673760.155 -16532173.645 18252743.920 10 0 59224 71100.00000 0 -6572998.702 -18648274.396 16118006.751 10 0 59224 72000.00000 0 -6632482.759 -20484699.389 13670267.334 10 0 59224 72900.00000 0 -6811410.940 -21994994.922 10956884.441 10 0 59224 73800.00000 0 -7061769.760 -23143448.907 8030447.478 10 0 59224 74700.00000 0 -7330561.758 -23906454.701 4947763.911 10 0 59224 75600.00000 0 -7562259.107 -24273385.180 1768757.936 10 0 59224 76500.00000 0 -7701378.524 -24246938.733 -1444698.335 10 0 59224 77400.00000 0 -7695067.350 -23842941.086 -4629997.888 10 0 59224 78300.00000 0 -7495589.557 -23089610.166 -7725031.382 10 0 59224 79200.00000 0 -7062604.108 -22026314.200 -10669413.861 10 0 59224 80100.00000 0 -6365136.672 -20701875.326 -13405679.823 10 0 59224 81000.00000 0 -5383158.649 -19172490.643 -15880421.599 10 0 59224 81900.00000 0 -4108704.202 -17499359.309 -18045347.093 10 0 59224 82800.00000 0 -2546476.042 -15746116.992 -19858234.700 10 0 59224 83700.00000 0 -713912.694 -13976187.206 -21283765.694 10 0 59224 84600.00000 0 1359286.755 -12250162.354 -22294217.177 10 0 59224 85500.00000 0 3632161.020 -10623325.791 -22870001.791 10 0 59225 0.00000 0 6053966.294 -9143419.644 -23000043.948 10 0 59225 900.00000 0 8566075.302 -7848752.376 -22681985.733 10 0 59225 1800.00000 0 11104215.083 -6766724.294 -21922219.498 10 0 59225 2700.00000 0 13600950.180 -5912833.028 -20735747.359 10 0 59225 3600.00000 0 15988306.623 -5290197.212 -19145871.741 10 0 59225 4500.00000 0 18200426.926 -4889617.443 -17183724.069 10 0 59225 5400.00000 0 20176145.418 -4690168.793 -14887642.050 10 0 59225 6300.00000 0 21861376.931 -4660297.525 -12302408.739 10 0 59225 7200.00000 0 23211219.949 -4759373.353 -9478369.209 10 0 59225 8100.00000 0 24191687.778 -4939629.647 -6470442.875 10 0 59225 9000.00000 0 24780997.093 -5148408.019 -3337051.246 10 0 59225 9900.00000 0 24970361.889 -5330611.355 -138982.462 10 0 59225 10800.00000 0 24764261.702 -5431261.115 3061785.186 10 0 59225 11700.00000 0 24180174.838 -5398050.778 6203278.095 10 0 59225 12600.00000 0 23247789.512 -5183788.039 9224717.682 10 0 59225 13500.00000 0 22007727.264 -4748623.335 12067683.933 10 0 59225 14400.00000 0 20509832.852 -4061971.588 14677230.697 10 0 59225 15300.00000 0 18811102.403 -3104046.981 17002932.320 10 0 59225 16200.00000 0 16973336.009 -1866946.728 18999842.895 10 0 59225 17100.00000 0 15060611.833 -355238.369 20629351.109 10 0 59225 18000.00000 0 13136685.753 1413974.498 21859915.569 10 0 59225 18900.00000 0 11262423.294 3411511.926 22667667.709 10 0 59225 19800.00000 0 9493369.006 5597085.384 23036871.551 10 0 59225 20700.00000 0 7877552.932 7920735.423 22960231.918 10 0 59225 21600.00000 0 6453624.056 10324682.037 22439045.097 10 0 59225 22500.00000 0 5249387.520 12745513.585 21483188.459 10 0 59225 23400.00000 0 4280806.133 15116625.846 20110948.098 10 0 59225 24300.00000 0 3551507.867 17370812.224 18348686.241 10 0 59225 25200.00000 0 3052820.448 19442899.186 16230352.961 10 0 59225 26100.00000 0 2764332.455 21272318.282 13796849.622 10 0 59225 27000.00000 0 2654958.430 22805507.950 11095254.406 10 0 59225 27900.00000 0 2684464.204 23998044.451 8177923.149 10 0 59225 28800.00000 0 2805389.029 24816411.726 5101481.673 10 0 59225 29700.00000 0 2965283.692 25239334.529 1925728.379 10 0 59225 30600.00000 0 3109169.855 25258617.075 -1287531.764 10 0 59225 31500.00000 0 3182115.705 24879450.094 -4475698.604 10 0 59225 32400.00000 0 3131817.377 24120171.763 -7576609.041 10 0 59225 33300.00000 0 2911074.789 23011491.315 -10529764.634 10 0 59225 34200.00000 0 2480054.635 21595207.370 -13277528.871 10 0 59225 35100.00000 0 1808242.169 19922474.868 -15766268.958 10 0 59225 36000.00000 0 875996.623 18051694.089 -17947418.125 10 0 59225 36900.00000 0 -324357.704 16046111.571 -19778436.137 10 0 59225 37800.00000 0 -1787952.664 13971235.113 -21223648.190 10 0 59225 38700.00000 0 -3497335.599 11892172.768 -22254945.087 10 0 59225 39600.00000 0 -5422969.293 9871008.809 -22852330.767 10 0 59225 40500.00000 0 -7524251.883 7964327.558 -23004306.727 10 0 59225 41400.00000 0 -9751013.838 6220989.154 -22708086.393 10 0 59225 42300.00000 0 -12045428.780 4680250.216 -21969636.131 10 0 59225 43200.00000 0 -14344257.567 3370307.063 -20803543.170 10 0 59225 44100.00000 0 -16581331.169 2307320.899 -19232714.208 10 0 59225 45000.00000 0 -18690167.957 1494963.659 -17287911.785 10 0 59225 45900.00000 0 -20606615.811 924500.947 -15007138.661 10 0 59225 46800.00000 0 -22271408.721 575405.773 -12434883.263 10 0 59225 47700.00000 0 -23632531.456 416474.520 -9621241.919 10 0 59225 48600.00000 0 -24647294.353 407395.554 -6620935.796 10 0 59225 49500.00000 0 -25284032.740 500702.134 -3492242.242 10 0 59225 50400.00000 0 -25523361.387 644025.605 -295861.856 10 0 59225 51300.00000 0 -25358933.276 782552.605 2906256.592 10 0 59225 52200.00000 0 -24797672.636 861582.032 6052110.683 10 0 59225 53100.00000 0 -23859474.151 829073.871 9080835.474 10 0 59225 54000.00000 0 -22576382.201 638082.733 11933868.887 10 0 59225 54900.00000 0 -20991285.352 248974.243 14556069.840 10 0 59225 55800.00000 0 -19156180.994 -368668.277 16896768.655 10 0 59225 56700.00000 0 -17130082.336 -1234526.337 18910730.939 10 0 59225 57600.00000 0 -14976654.191 -2356481.403 20559017.826 10 0 59225 58500.00000 0 -12761674.816 -3730047.345 21809727.389 10 0 59225 59400.00000 0 -10550427.743 -5338324.655 22638604.212 10 0 59225 60300.00000 0 -8405130.199 -7152479.711 23029506.309 10 0 59225 61200.00000 0 -6382503.189 -9132730.916 22974720.854 10 0 59225 62100.00000 0 -4531582.556 -11229803.002 22475122.647 10 0 59225 63000.00000 0 -2891860.593 -13386791.589 21540171.651 10 0 59225 63900.00000 0 -1491834.778 -15541363.009 20187748.567 10 0 59225 64800.00000 0 -348023.596 -17628200.356 18443830.056 10 0 59225 65700.00000 0 535509.338 -19581595.943 16342007.977 10 0 59225 66600.00000 0 1167102.398 -21338083.528 13922859.951 10 0 59225 67500.00000 0 1566915.737 -22839001.181 11233181.429 10 0 59225 68400.00000 0 1765847.197 -24032877.603 8325092.351 10 0 59225 69300.00000 0 1803989.104 -24877541.133 5255034.443 10 0 59225 70200.00000 0 1728690.551 -25341861.615 2082677.780 10 0 59225 71100.00000 0 1592306.943 -25407050.075 -1130242.385 10 0 59225 72000.00000 0 1449732.528 -25067459.483 -4321135.364 10 0 59225 72900.00000 0 1355821.518 -24330850.886 -7427786.867 10 0 59225 73800.00000 0 1362808.772 -23218111.970 -10389587.531 10 0 59225 74700.00000 0 1517841.445 -21762438.653 -13148732.322 10 0 59225 75600.00000 0 1860728.588 -20008013.510 -15651365.707 10 0 59225 76500.00000 0 2422006.438 -18008236.591 -17848648.457 10 0 59225 77400.00000 0 3221403.533 -15823583.589 -19697723.680 10 0 59225 78300.00000 0 4266772.501 -13519182.302 -21162562.128 10 0 59225 79200.00000 0 5553535.133 -11162210.220 -22214669.557 10 0 59225 80100.00000 0 7064665.107 -8819223.616 -22833642.011 10 0 59225 81000.00000 0 8771209.550 -6553530.935 -23007558.438 10 0 59225 81900.00000 0 10633327.532 -4422720.921 -22733203.495 10 0 59225 82800.00000 0 12601801.452 -2476448.929 -22016117.069 10 0 59225 83700.00000 0 14619957.283 -754573.262 -20870470.606 10 0 59225 84600.00000 0 16625912.488 714281.896 -19318773.826 10 0 59225 85500.00000 0 18555056.670 1913678.742 -17391418.791 99